Temp
63 62 62 62 62 62 62 62 62 62 62 63 63 63 63 64 64 64 63 63 63 62 62 62 62 62 62 61 62 62 62 62 62 62 62 62 62 61 61 62 62 62 62 62 61 61 60 59 58 58 57 57 58 58 59 59 59 59 59 59 59 60 60 61 61 61 62 62 62
61 62 62 62 62 61 61 60 60 60 60 60 61 61 62 62 62 62 61 60 60 60 61 61 61 61 61 61 61 62 62 62 62 62 62 62 61 61 61 62 62 61 61 61 60 60 60 60 58 58 57 57 57 57 58 59 59 59 59 59 60 60 60 60 61 62 62 62 62
61 62 62 62 62 61 60 59 59 59 59 58 59 59 59 59 59 59 59 58 59 59 59 60 60 60 60 60 60 61 61 61 61 62 62 62 62 61 61 61 61 61 60 61 60 60 60 60 58 57 57 57 58 58 59 59 59 58 58 59 60 60 60 60 61 62 62 62 62
60 61 62 62 62 62 61 61 59 59 58 57 58 58 58 58 58 58 58 58 58 59 59 59 60 60 60 60 60 60 60 60 60 60 61 61 61 61 60 60 60 60 60 60 60 60 60 59 58 57 57 57 58 59 60 60 59 59 58 59 60 60 59 60 61 61 62 61 62
59 60 61 62 62 63 63 62 61 60 59 59 59 59 59 59 59 59 59 59 58 58 58 59 60 60 60 60 59 59 59 59 59 59 60 60 60 60 60 60 60 60 60 60 59 59 59 59 58 57 57 57 57 58 59 60 60 59 59 59 59 59 59 59 60 60 60 60 60
60 60 61 61 61 62 62 62 61 61 60 60 60 59 59 59 60 59 59 59 58 58 58 58 59 59 59 59 59 59 59 59 59 59 59 59 59 60 59 59 59 59 59 59 59 59 58 58 58 57 57 57 57 58 59 59 58 58 58 58 58 58 58 59 60 60 59 59 59
59 59 59 59 58 58 58 58 59 59 59 59 58 58 58 58 58 58 58 58 58 58 58 58 58 58 58 58 58 58 58 58 59 59 58 58 58 58 58 58 58 58 58 58 58 58 58 58 57 57 57 57 57 58 59 58 58 57 57 58 58 58 58 59 59 59 59 59 59
57 57 58 57 57 56 56 56 57 57 57 56 56 56 56 57 57 58 58 57 57 57 57 57 57 57 57 57 57 57 57 57 57 58 58 58 57 57 58 58 57 57 57 57 57 57 57 57 56 57 57 57 57 58 59 59 58 57 57 58 59 59 59 59 59 59 59 59 59
56 57 57 56 55 55 55 55 56 55 55 55 55 55 55 55 56 57 57 56 56 56 56 56 56 55 55 55 55 55 55 56 56 56 56 56 56 56 56 56 56 56 57 57 57 56 56 56 55 56 56 56 57 57 58 59 57 57 57 58 59 59 59 59 59 59 59 59 58
55 55 55 55 54 54 54 54 55 55 54 53 53 54 54 54 55 56 56 55 55 55 55 55 54 54 54 54 54 54 54 54 54 54 54 55 55 55 55 55 55 55 55 56 56 55 55 55 54 55 56 56 56 57 57 57 57 57 57 58 58 58 59 59 59 59 59 58 58
54 54 54 53 53 53 52 52 53 53 53 53 53 53 53 53 54 54 55 55 54 54 53 53 53 53 53 53 53 52 52 53 53 53 53 53 53 54 54 54 54 54 54 54 55 55 54 54 54 54 55 55 55 56 56 56 56 56 56 57 57 57 58 58 59 59 59 58 58
52 52 52 52 52 51 51 51 52 52 53 52 53 53 53 53 53 53 53 53 53 53 52 52 52 51 52 52 52 51 52 52 52 52 52 52 52 53 53 53 53 53 53 54 54 54 54 54 54 54 54 54 55 55 55 55 55 55 55 55 56 56 56 57 58 58 58 58 57
50 50 51 51 51 50 50 51 52 52 53 52 52 52 52 52 52 52 52 52 52 52 52 51 51 50 50 51 51 51 51 51 51 51 51 51 52 52 52 53 53 53 53 53 54 54 54 53 53 53 53 54 54 55 55 55 54 54 54 55 55 55 55 56 57 57 57 57 56
48 49 49 50 50 50 50 50 51 52 52 51 52 51 51 51 51 51 52 52 51 51 51 51 50 50 50 50 50 51 51 51 51 51 51 51 52 52 52 52 53 53 53 53 53 52 52 52 52 52 52 52 53 54 54 54 54 54 54 54 54 54 55 55 56 56 55 55 55
47 48 48 49 49 50 50 49 50 50 51 51 51 50 50 49 50 50 51 50 50 50 50 49 49 49 49 50 50 51 51 51 51 51 51 51 52 52 52 53 53 53 53 53 52 52 51 51 52 52 52 52 52 52 52 52 53 53 53 53 53 54 54 54 55 55 54 54 54
46 46 47 47 47 48 48 48 49 49 50 50 50 50 49 49 49 49 49 49 49 49 48 48 48 49 49 50 50 51 51 51 51 51 51 51 51 52 52 52 52 52 51 51 51 51 51 51 52 52 52 51 51 51 51 51 51 51 52 52 52 53 53 53 54 54 54 54 54
44 44 45 45 45 45 46 47 48 49 49 49 49 49 49 48 48 48 48 47 47 47 47 47 48 49 49 49 50 51 51 51 51 51 51 49 50 51 51 51 50 50 50 50 50 50 50 51 52 52 52 52 51 51 51 51 51 51 51 51 51 51 51 52 52 53 53 53 54
44 44 44 44 44 44 45 46 47 47 47 48 48 48 48 48 47 47 47 46 47 47 47 47 48 48 48 49 50 50 51 51 51 51 50 49 49 50 50 50 49 49 50 50 50 50 50 50 51 51 51 51 51 51 51 51 50 50 50 50 50 50 50 50 51 51 52 52 52
43 43 43 43 43 44 45 45 45 46 46 47 47 47 47 46 46 45 45 45 46 46 46 47 47 48 48 48 49 50 50 51 51 50 50 49 49 50 50 49 49 49 49 50 50 50 50 50 50 49 49 50 50 50 50 50 49 49 49 49 48 48 49 49 49 49 49 50 50
42 42 42 43 43 43 44 44 45 45 46 46 46 45 45 44 44 44 44 44 45 46 46 47 47 48 48 48 49 50 50 51 50 50 49 48 49 49 49 49 48 48 48 49 49 49 49 49 49 48 48 48 48 49 48 48 48 48 47 47 47 47 47 47 47 47 48 48 47
41 41 42 42 42 42 43 43 44 44 45 45 44 44 43 43 43 43 44 44 45 46 47 47 47 48 48 49 49 50 50 51 50 49 49 48 48 48 49 49 48 47 47 47 47 47 47 47 47 47 47 47 47 47 47 46 46 46 46 46 45 45 45 45 45 45 46 46 45
40 40 40 41 41 41 42 42 43 43 43 43 43 43 43 43 43 43 44 45 46 46 47 47 48 48 49 49 50 50 50 50 49 48 48 47 48 48 49 49 48 48 47 47 47 46 46 46 46 46 46 46 46 46 46 46 45 45 45 45 45 44 44 44 44 44 44 44 44
38 38 39 39 40 40 40 41 42 42 42 42 42 42 42 42 43 43 44 45 46 47 47 48 49 49 49 50 50 50 49 49 47 47 47 47 48 48 48 48 48 48 47 47 47 46 46 45 45 45 45 44 44 44 45 45 45 44 44 44 44 44 43 43 43 43 43 43 43
37 37 37 38 38 38 39 40 40 40 40 41 41 41 42 42 43 44 44 45 46 47 48 49 49 49 49 50 49 49 48 48 46 46 46 46 47 47 47 47 46 47 47 47 47 46 45 45 44 43 43 42 42 42 43 43 43 43 43 44 43 43 43 42 42 42 43 43 43
36 37 37 37 37 37 38 38 38 39 39 40 41 41 42 42 43 44 45 46 46 47 48 48 49 49 49 48 48 47 47 47 46 45 45 45 45 45 45 45 45 46 46 47 46 45 44 44 43 42 41 41 41 41 41 41 42 42 42 42 42 42 42 42 42 42 42 42 42
36 36 36 36 36 37 37 37 37 37 38 39 40 41 42 43 43 44 45 45 46 47 48 48 48 48 48 47 47 46 45 46 46 45 44 44 43 43 44 44 45 46 46 46 46 45 44 43 42 42 41 41 40 40 39 39 40 41 41 41 41 41 41 42 42 42 42 42 42
35 35 35 36 36 36 36 36 37 37 38 39 40 40 41 42 43 44 44 45 46 47 47 48 48 47 47 47 46 44 44 44 45 44 44 43 42 42 42 43 44 44 44 45 45 45 44 44 43 42 41 41 40 40 39 39 39 39 40 40 40 40 40 40 40 41 42 42 43
35 35 35 35 35 35 35 36 37 37 38 38 39 40 40 41 42 43 43 44 45 46 46 47 47 48 47 46 45 43 42 42 42 42 43 42 42 42 42 42 43 44 44 45 45 44 44 43 43 42 42 41 40 40 39 40 40 40 39 39 39 39 39 38 39 40 40 41 42
34 34 34 34 34 34 35 36 37 37 38 38 38 39 39 40 41 42 43 44 44 44 45 46 47 47 46 45 44 43 42 40 40 40 40 40 40 41 41 43 42 43 44 44 44 44 43 43 43 42 42 41 41 41 40 40 40 40 40 39 40 40 40 39 39 39 40 41 42
34 34 34 34 34 34 35 36 37 37 37 38 38 38 38 39 40 42 43 43 43 43 44 45 46 45 45 44 44 44 43 41 40 39 39 39 38 38 39 41 41 42 43 44 44 44 43 43 42 42 42 42 42 42 42 41 41 40 40 40 40 40 40 40 39 39 39 40 41
34 34 34 34 34 35 35 36 37 37 37 37 38 38 38 39 40 41 42 43 43 43 43 44 44 43 43 43 43 43 43 43 41 40 39 38 38 38 39 39 40 41 42 43 43 43 43 42 42 42 41 41 42 42 42 42 42 41 41 40 40 40 40 40 40 40 39 39 40
34 34 34 35 35 35 35 36 37 37 38 38 38 38 38 39 40 41 42 43 43 43 43 42 42 41 40 40 40 41 41 41 41 41 40 40 39 39 39 39 40 41 42 43 43 43 42 42 42 41 41 41 41 41 41 41 41 41 40 40 40 40 40 40 40 40 40 40 40
34 34 34 35 35 35 36 36 37 37 38 38 38 38 38 39 40 42 43 43 43 43 42 42 41 41 40 40 40 40 40 40 40 40 41 41 41 40 40 40 40 41 42 42 42 42 42 42 41 41 41 41 41 41 41 41 41 41 40 40 40 39 39 39 40 40 40 41 41
34 34 35 35 35 36 36 37 37 38 38 38 39 39 39 39 41 42 43 43 43 43 43 42 41 41 41 40 40 40 40 40 40 40 40 40 41 41 40 40 40 41 42 42 42 41 41 41 41 41 40 40 41 42 42 41 41 41 40 40 40 39 39 39 39 39 40 40 41
34 35 35 35 35 36 36 37 38 38 38 38 39 39 39 40 41 42 42 42 43 43 43 42 42 41 41 41 41 40 40 40 40 40 40 40 40 40 40 40 40 41 41 42 42 41 40 40 40 40 40 40 41 42 42 41 41 40 40 39 39 39 38 38 39 39 39 40 40
35 35 36 36 36 36 37 37 38 38 38 38 39 39 39 40 41 42 42 42 42 42 42 42 42 42 41 41 41 40 40 40 40 40 40 40 40 39 40 40 40 40 40 41 42 42 41 40 40 40 40 40 41 41 41 41 41 40 40 39 39 38 38 38 38 39 39 39 40
36 36 36 36 36 36 37 37 38 38 38 38 39 39 39 40 40 41 41 42 42 41 41 41 41 41 40 40 40 40 40 40 39 39 39 39 39 39 40 40 40 40 40 40 41 41 41 41 40 40 40 40 41 41 41 41 40 40 39 39 39 38 38 38 38 38 38 38 38
36 36 36 36 36 37 37 37 37 37 37 38 39 39 39 39 39 39 40 41 41 41 40 40 40 40 40 40 39 39 39 39 39 39 39 39 39 39 40 40 39 39 39 39 40 41 41 41 41 40 40 40 40 40 40 40 40 39 39 39 39 38 38 39 39 39 38 37 37
36 36 36 36 36 36 37 37 37 37 37 38 39 39 38 38 37 37 38 40 40 40 40 40 40 40 40 40 39 39 39 39 39 39 38 38 38 39 39 39 39 39 39 39 39 40 40 41 40 40 39 40 40 40 39 39 39 39 38 38 38 38 38 39 39 38 38 37 36
36 37 36 36 36 37 37 37 37 37 37 37 38 38 38 37 36 37 37 38 39 39 39 40 40 40 40 40 39 39 39 39 39 39 38 38 38 38 38 39 39 39 39 38 39 39 40 40 40 39 39 39 40 40 39 39 38 38 38 37 37 38 38 38 38 38 38 38 37
36 36 36 36 37 37 37 37 37 37 37 37 37 37 37 38 37 37 37 37 38 38 39 39 39 40 40 40 40 39 39 38 38 38 37 37 38 38 38 39 39 39 39 38 38 39 39 40 39 39 39 39 39 40 39 39 37 37 36 36 37 37 37 37 38 38 38 38 38
MSLP
1009.57 1009.33 1009.21 1009.21 1009.29 1009.45 1009.53 1009.57 1009.57 1009.61 1009.61 1009.57 1009.57 1009.61 1009.65 1009.65 1009.61 1009.65 1009.73 1009.81 1009.89 1009.97 1010.09 1010.21 1010.21 1010.29 1010.37 1010.45 1010.49 1010.41 1010.41 1010.45 1010.45 1010.49 1010.49 1010.49 1010.49 1010.53 1010.53 1010.53 1010.53 1010.53 1010.57 1010.57 1010.61 1010.65 1010.69 1010.77 1010.81 1010.81 1010.81 1010.77 1010.69 1010.61 1010.61 1010.57 1010.49 1010.49 1010.45 1010.37 1010.33 1010.33 1010.25 1010.17 1010.13 1010.05 1010.05 1009.97 1009.97
1009.89 1009.57 1009.33 1009.17 1009.21 1009.33 1009.49 1009.57 1009.61 1009.61 1009.65 1009.65 1009.73 1009.73 1009.73 1009.77 1009.77 1009.77 1009.89 1009.97 1010.05 1010.13 1010.21 1010.29 1010.33 1010.37 1010.45 1010.49 1010.49 1010.49 1010.45 1010.45 1010.49 1010.49 1010.49 1010.53 1010.53 1010.57 1010.57 1010.53 1010.57 1010.57 1010.57 1010.61 1010.61 1010.61 1010.61 1010.65 1010.73 1010.77 1010.77 1010.73 1010.69 1010.61 1010.57 1010.53 1010.49 1010.45 1010.41 1010.33 1010.29 1010.21 1010.17 1010.09 1010.05 1009.97 1009.93 1009.93 1009.89
1010.05 1009.77 1009.57 1009.37 1009.33 1009.33 1009.45 1009.53 1009.57 1009.57 1009.65 1009.73 1009.81 1009.85 1009.89 1009.93 1009.93 1010.01 1010.05 1010.21 1010.25 1010.29 1010.33 1010.33 1010.41 1010.45 1010.49 1010.49 1010.53 1010.53 1010.53 1010.53 1010.57 1010.53 1010.49 1010.53 1010.57 1010.61 1010.61 1010.57 1010.61 1010.61 1010.61 1010.61 1010.61 1010.61 1010.61 1010.61 1010.65 1010.69 1010.65 1010.61 1010.57 1010.49 1010.45 1010.37 1010.41 1010.41 1010.33 1010.25 1010.21 1010.13 1010.05 1010.05 1009.97 1009.93 1009.85 1009.81 1009.77
1009.97 1009.81 1009.65 1009.49 1009.49 1009.45 1009.45 1009.49 1009.49 1009.53 1009.65 1009.77 1009.85 1009.93 1009.97 1010.05 1010.13 1010.21 1010.25 1010.29 1010.33 1010.33 1010.41 1010.41 1010.45 1010.49 1010.53 1010.53 1010.61 1010.61 1010.65 1010.65 1010.69 1010.61 1010.61 1010.57 1010.61 1010.61 1010.61 1010.61 1010.61 1010.61 1010.61 1010.61 1010.61 1010.57 1010.57 1010.61 1010.61 1010.61 1010.61 1010.53 1010.41 1010.33 1010.25 1010.25 1010.29 1010.29 1010.21 1010.17 1010.13 1010.09 1010.05 1009.97 1009.93 1009.89 1009.81 1009.77 1009.77
1009.85 1009.73 1009.65 1009.57 1009.49 1009.49 1009.45 1009.49 1009.49 1009.49 1009.61 1009.69 1009.77 1009.93 1010.01 1010.09 1010.17 1010.21 1010.25 1010.33 1010.37 1010.49 1010.53 1010.53 1010.53 1010.53 1010.61 1010.65 1010.65 1010.65 1010.69 1010.77 1010.77 1010.77 1010.73 1010.69 1010.65 1010.61 1010.65 1010.69 1010.65 1010.61 1010.61 1010.61 1010.61 1010.57 1010.57 1010.57 1010.57 1010.53 1010.49 1010.49 1010.37 1010.33 1010.21 1010.17 1010.17 1010.17 1010.09 1010.09 1010.05 1010.05 1009.97 1009.93 1009.89 1009.85 1009.81 1009.77 1009.77
1009.65 1009.77 1009.81 1009.77 1009.65 1009.57 1009.49 1009.49 1009.49 1009.49 1009.53 1009.65 1009.73 1009.81 1009.93 1010.05 1010.09 1010.17 1010.21 1010.33 1010.41 1010.53 1010.61 1010.69 1010.69 1010.69 1010.65 1010.65 1010.65 1010.69 1010.69 1010.77 1010.77 1010.77 1010.77 1010.77 1010.73 1010.73 1010.73 1010.73 1010.73 1010.69 1010.61 1010.61 1010.61 1010.61 1010.57 1010.57 1010.49 1010.49 1010.41 1010.41 1010.33 1010.21 1010.17 1010.21 1010.17 1010.09 1010.05 1010.05 1009.97 1009.97 1009.93 1009.89 1009.81 1009.81 1009.77 1009.77 1009.77
1009.93 1010.09 1010.09 1009.93 1009.73 1009.65 1009.57 1009.61 1009.61 1009.61 1009.61 1009.65 1009.73 1009.77 1009.93 1010.05 1010.09 1010.17 1010.25 1010.33 1010.45 1010.57 1010.65 1010.73 1010.77 1010.73 1010.69 1010.69 1010.69 1010.69 1010.73 1010.77 1010.77 1010.77 1010.77 1010.77 1010.77 1010.77 1010.77 1010.77 1010.77 1010.77 1010.73 1010.69 1010.61 1010.61 1010.53 1010.53 1010.45 1010.37 1010.33 1010.29 1010.21 1010.17 1010.09 1010.09 1010.09 1010.05 1009.97 1009.85 1009.81 1009.81 1009.81 1009.77 1009.77 1009.77 1009.73 1009.73 1009.69
1010.13 1010.29 1010.17 1009.89 1009.65 1009.49 1009.49 1009.57 1009.65 1009.65 1009.69 1009.69 1009.73 1009.77 1009.89 1010.01 1010.05 1010.17 1010.25 1010.37 1010.49 1010.61 1010.69 1010.77 1010.77 1010.77 1010.77 1010.77 1010.73 1010.77 1010.77 1010.81 1010.81 1010.81 1010.85 1010.85 1010.85 1010.81 1010.77 1010.77 1010.77 1010.77 1010.73 1010.73 1010.65 1010.61 1010.57 1010.53 1010.45 1010.37 1010.33 1010.21 1010.17 1010.09 1010.05 1010.01 1010.01 1009.97 1009.89 1009.77 1009.69 1009.69 1009.69 1009.65 1009.65 1009.65 1009.65 1009.65 1009.65
1010.17 1010.25 1010.09 1009.73 1009.41 1009.25 1009.25 1009.37 1009.53 1009.65 1009.69 1009.65 1009.69 1009.77 1009.85 1009.93 1010.01 1010.05 1010.21 1010.33 1010.49 1010.61 1010.69 1010.77 1010.77 1010.77 1010.77 1010.77 1010.81 1010.81 1010.85 1010.89 1010.93 1010.93 1010.93 1010.93 1010.93 1010.89 1010.85 1010.81 1010.77 1010.77 1010.73 1010.69 1010.65 1010.61 1010.61 1010.57 1010.49 1010.41 1010.33 1010.21 1010.13 1010.05 1009.97 1009.97 1009.93 1009.93 1009.81 1009.73 1009.61 1009.57 1009.53 1009.57 1009.57 1009.57 1009.57 1009.57 1009.57
1010.05 1010.17 1010.13 1009.85 1009.45 1009.17 1009.09 1009.21 1009.37 1009.53 1009.65 1009.65 1009.69 1009.77 1009.81 1009.93 1009.97 1010.05 1010.17 1010.33 1010.53 1010.61 1010.69 1010.77 1010.77 1010.81 1010.81 1010.81 1010.85 1010.93 1010.93 1010.97 1010.97 1010.97 1011.05 1011.05 1011.05 1010.97 1010.93 1010.85 1010.77 1010.77 1010.69 1010.69 1010.65 1010.61 1010.57 1010.53 1010.45 1010.33 1010.29 1010.25 1010.17 1010.05 1010.01 1009.97 1009.93 1009.85 1009.77 1009.73 1009.65 1009.53 1009.49 1009.49 1009.49 1009.49 1009.49 1009.49 1009.49
1009.93 1010.13 1010.21 1010.17 1009.85 1009.49 1009.21 1009.21 1009.33 1009.49 1009.61 1009.65 1009.69 1009.77 1009.81 1009.93 1009.97 1010.05 1010.17 1010.33 1010.49 1010.61 1010.73 1010.77 1010.85 1010.85 1010.85 1010.85 1010.89 1010.97 1011.05 1011.05 1011.05 1011.05 1011.09 1011.13 1011.09 1011.05 1011.01 1010.93 1010.85 1010.77 1010.73 1010.65 1010.65 1010.61 1010.57 1010.49 1010.37 1010.33 1010.29 1010.21 1010.17 1010.13 1010.05 1010.01 1009.93 1009.89 1009.81 1009.73 1009.65 1009.61 1009.49 1009.45 1009.41 1009.41 1009.41 1009.45 1009.45
1009.81 1010.13 1010.33 1010.33 1010.21 1009.93 1009.65 1009.37 1009.33 1009.49 1009.57 1009.65 1009.69 1009.77 1009.85 1009.93 1009.97 1010.05 1010.21 1010.29 1010.37 1010.49 1010.69 1010.85 1010.89 1010.89 1010.89 1010.93 1010.97 1011.05 1011.13 1011.13 1011.17 1011.21 1011.21 1011.17 1011.17 1011.13 1011.05 1010.93 1010.85 1010.81 1010.77 1010.65 1010.61 1010.57 1010.49 1010.41 1010.33 1010.25 1010.21 1010.17 1010.13 1010.05 1010.05 1010.01 1009.93 1009.93 1009.85 1009.77 1009.69 1009.65 1009.57 1009.49 1009.45 1009.41 1009.41 1009.41 1009.45
1009.65 1010.09 1010.33 1010.41 1010.37 1010.21 1009.93 1009.65 1009.53 1009.49 1009.57 1009.65 1009.77 1009.85 1009.93 1010.05 1010.05 1010.05 1010.13 1010.21 1010.33 1010.49 1010.65 1010.85 1010.93 1011.01 1011.05 1011.05 1011.05 1011.09 1011.17 1011.17 1011.17 1011.21 1011.21 1011.21 1011.21 1011.13 1011.05 1010.97 1010.85 1010.77 1010.69 1010.61 1010.61 1010.53 1010.45 1010.37 1010.29 1010.25 1010.21 1010.13 1010.09 1010.05 1010.01 1010.01 1009.97 1009.93 1009.85 1009.77 1009.69 1009.65 1009.57 1009.53 1009.49 1009.49 1009.49 1009.49 1009.49
1009.53 1009.97 1010.33 1010.37 1010.33 1010.17 1010.01 1009.89 1009.77 1009.65 1009.69 1009.81 1009.89 1009.93 1010.05 1010.09 1010.09 1010.09 1010.09 1010.17 1010.33 1010.49 1010.65 1010.85 1010.97 1011.05 1011.09 1011.09 1011.09 1011.13 1011.17 1011.17 1011.17 1011.17 1011.21 1011.21 1011.17 1011.09 1011.01 1010.93 1010.81 1010.69 1010.61 1010.53 1010.53 1010.53 1010.49 1010.41 1010.33 1010.29 1010.21 1010.21 1010.13 1010.09 1010.05 1010.05 1010.01 1009.93 1009.85 1009.77 1009.69 1009.65 1009.65 1009.57 1009.57 1009.61 1009.61 1009.65 1009.61
1009.53 1009.89 1010.21 1010.33 1010.21 1010.01 1009.93 1009.93 1009.93 1009.93 1009.97 1010.01 1010.01 1010.05 1010.09 1010.17 1010.21 1010.21 1010.21 1010.25 1010.41 1010.57 1010.73 1010.85 1010.93 1011.05 1011.09 1011.17 1011.17 1011.13 1011.13 1011.13 1011.13 1011.13 1011.09 1011.05 1011.05 1011.05 1010.93 1010.77 1010.73 1010.61 1010.49 1010.45 1010.45 1010.49 1010.49 1010.41 1010.33 1010.29 1010.25 1010.25 1010.25 1010.25 1010.21 1010.17 1010.05 1009.97 1009.93 1009.85 1009.77 1009.77 1009.69 1009.65 1009.69 1009.69 1009.69 1009.69 1009.69
1009.53 1009.81 1010.09 1010.25 1010.17 1010.01 1009.89 1009.93 1010.05 1010.21 1010.21 1010.21 1010.09 1010.05 1010.13 1010.25 1010.37 1010.41 1010.41 1010.45 1010.53 1010.65 1010.77 1010.89 1010.93 1010.97 1011.05 1011.17 1011.17 1011.17 1011.09 1011.09 1011.09 1011.05 1011.05 1011.05 1011.05 1010.93 1010.85 1010.77 1010.69 1010.65 1010.61 1010.45 1010.41 1010.37 1010.37 1010.33 1010.33 1010.33 1010.33 1010.33 1010.33 1010.33 1010.29 1010.25 1010.21 1010.17 1010.09 1010.05 1010.01 1009.93 1009.89 1009.85 1009.81 1009.77 1009.73 1009.73 1009.69
1009.61 1009.77 1009.97 1010.13 1010.13 1010.05 1010.05 1010.13 1010.25 1010.37 1010.45 1010.37 1010.21 1010.21 1010.25 1010.41 1010.49 1010.57 1010.57 1010.61 1010.61 1010.73 1010.77 1010.85 1010.93 1011.01 1011.05 1011.13 1011.13 1011.13 1011.09 1011.05 1011.05 1011.05 1011.05 1011.13 1011.05 1010.93 1010.85 1010.81 1010.81 1010.77 1010.61 1010.49 1010.37 1010.33 1010.37 1010.41 1010.37 1010.37 1010.41 1010.37 1010.37 1010.33 1010.33 1010.37 1010.33 1010.33 1010.33 1010.25 1010.25 1010.21 1010.17 1010.13 1010.05 1009.93 1009.89 1009.81 1009.77
1009.81 1009.77 1009.77 1009.93 1010.05 1010.17 1010.21 1010.33 1010.45 1010.53 1010.61 1010.53 1010.45 1010.41 1010.49 1010.57 1010.61 1010.65 1010.69 1010.73 1010.69 1010.73 1010.77 1010.93 1011.01 1011.09 1011.13 1011.13 1011.13 1011.13 1011.13 1011.09 1011.05 1011.05 1011.09 1011.17 1011.05 1010.93 1010.93 1010.93 1010.89 1010.77 1010.57 1010.45 1010.37 1010.37 1010.45 1010.49 1010.49 1010.53 1010.53 1010.49 1010.45 1010.41 1010.41 1010.45 1010.49 1010.49 1010.49 1010.49 1010.49 1010.49 1010.45 1010.41 1010.33 1010.25 1010.17 1010.05 1009.97
1010.17 1010.05 1009.89 1009.81 1009.93 1010.17 1010.33 1010.49 1010.61 1010.65 1010.69 1010.65 1010.61 1010.61 1010.61 1010.69 1010.73 1010.73 1010.73 1010.73 1010.73 1010.77 1010.93 1011.05 1011.13 1011.21 1011.21 1011.21 1011.21 1011.17 1011.17 1011.13 1011.09 1011.09 1011.13 1011.13 1011.05 1010.93 1010.93 1011.01 1010.93 1010.77 1010.61 1010.49 1010.49 1010.49 1010.53 1010.61 1010.65 1010.77 1010.77 1010.69 1010.61 1010.57 1010.53 1010.61 1010.61 1010.65 1010.69 1010.69 1010.69 1010.69 1010.69 1010.69 1010.65 1010.61 1010.53 1010.49 1010.41
1010.53 1010.45 1010.29 1010.09 1010.05 1010.13 1010.37 1010.61 1010.73 1010.77 1010.81 1010.77 1010.77 1010.77 1010.77 1010.77 1010.77 1010.69 1010.65 1010.65 1010.77 1010.93 1011.05 1011.21 1011.21 1011.21 1011.21 1011.21 1011.21 1011.17 1011.13 1011.13 1011.13 1011.13 1011.17 1011.21 1011.05 1011.01 1011.05 1011.05 1011.05 1010.93 1010.85 1010.77 1010.65 1010.61 1010.65 1010.77 1010.85 1010.93 1010.93 1010.93 1010.85 1010.85 1010.85 1010.85 1010.93 1010.93 1010.97 1010.97 1010.97 1011.01 1011.05 1011.05 1011.01 1010.93 1010.93 1010.89 1010.85
1010.85 1010.85 1010.77 1010.65 1010.49 1010.41 1010.49 1010.73 1010.93 1011.01 1010.97 1010.89 1010.81 1010.77 1010.77 1010.73 1010.69 1010.61 1010.65 1010.73 1010.89 1011.01 1011.13 1011.21 1011.21 1011.21 1011.21 1011.21 1011.21 1011.13 1011.09 1011.13 1011.17 1011.21 1011.21 1011.29 1011.21 1011.13 1011.09 1011.05 1011.05 1011.05 1011.05 1011.05 1010.93 1010.93 1010.93 1011.01 1011.09 1011.09 1011.09 1011.13 1011.13 1011.17 1011.21 1011.21 1011.21 1011.21 1011.21 1011.25 1011.29 1011.33 1011.33 1011.33 1011.33 1011.29 1011.25 1011.21 1011.21
1011.21 1011.21 1011.21 1011.17 1011.05 1010.93 1010.93 1011.05 1011.17 1011.17 1011.09 1010.97 1010.89 1010.77 1010.65 1010.61 1010.61 1010.65 1010.73 1010.85 1010.97 1011.05 1011.17 1011.21 1011.21 1011.21 1011.21 1011.21 1011.17 1011.13 1011.17 1011.21 1011.33 1011.33 1011.33 1011.33 1011.25 1011.21 1011.17 1011.09 1011.09 1011.09 1011.13 1011.09 1011.13 1011.13 1011.13 1011.21 1011.33 1011.33 1011.33 1011.37 1011.41 1011.45 1011.45 1011.45 1011.45 1011.41 1011.41 1011.45 1011.49 1011.53 1011.57 1011.65 1011.65 1011.57 1011.53 1011.49 1011.49
1011.57 1011.65 1011.65 1011.61 1011.53 1011.49 1011.41 1011.41 1011.41 1011.33 1011.17 1011.01 1010.85 1010.69 1010.61 1010.61 1010.73 1010.77 1010.81 1010.89 1010.97 1011.05 1011.17 1011.21 1011.21 1011.21 1011.21 1011.21 1011.21 1011.21 1011.25 1011.37 1011.49 1011.53 1011.49 1011.41 1011.33 1011.29 1011.21 1011.21 1011.21 1011.17 1011.17 1011.21 1011.21 1011.25 1011.33 1011.37 1011.49 1011.57 1011.65 1011.65 1011.73 1011.73 1011.69 1011.69 1011.69 1011.65 1011.61 1011.61 1011.65 1011.69 1011.77 1011.77 1011.77 1011.77 1011.77 1011.73 1011.73
1011.93 1012.01 1012.05 1012.05 1011.97 1011.93 1011.89 1011.77 1011.69 1011.49 1011.21 1010.93 1010.77 1010.69 1010.69 1010.77 1010.81 1010.85 1010.85 1010.89 1010.97 1011.09 1011.21 1011.21 1011.21 1011.25 1011.25 1011.25 1011.29 1011.37 1011.45 1011.53 1011.61 1011.61 1011.61 1011.53 1011.45 1011.37 1011.33 1011.37 1011.37 1011.33 1011.29 1011.33 1011.41 1011.49 1011.49 1011.57 1011.69 1011.81 1011.93 1011.97 1012.01 1012.01 1012.05 1012.01 1011.97 1011.93 1011.89 1011.81 1011.81 1011.85 1011.93 1011.97 1011.97 1011.97 1011.93 1011.93 1011.89
1012.21 1012.33 1012.37 1012.37 1012.33 1012.33 1012.25 1012.13 1011.93 1011.61 1011.21 1010.97 1010.85 1010.81 1010.85 1010.89 1010.89 1010.85 1010.85 1010.89 1011.05 1011.17 1011.21 1011.25 1011.25 1011.29 1011.33 1011.45 1011.53 1011.61 1011.65 1011.65 1011.65 1011.69 1011.69 1011.65 1011.65 1011.57 1011.53 1011.53 1011.49 1011.45 1011.45 1011.49 1011.57 1011.65 1011.69 1011.77 1011.93 1012.05 1012.17 1012.21 1012.21 1012.21 1012.29 1012.29 1012.25 1012.21 1012.17 1012.09 1012.05 1012.05 1012.05 1012.05 1012.05 1012.05 1012.05 1012.05 1012.05
1012.49 1012.53 1012.61 1012.65 1012.65 1012.61 1012.57 1012.41 1012.13 1011.77 1011.49 1011.25 1011.09 1011.05 1010.97 1010.93 1010.89 1010.85 1010.89 1010.97 1011.13 1011.21 1011.29 1011.33 1011.33 1011.37 1011.49 1011.65 1011.77 1011.81 1011.85 1011.81 1011.85 1011.81 1011.81 1011.81 1011.81 1011.81 1011.77 1011.65 1011.65 1011.65 1011.65 1011.65 1011.69 1011.77 1011.93 1012.05 1012.17 1012.29 1012.33 1012.37 1012.41 1012.41 1012.45 1012.49 1012.49 1012.49 1012.45 1012.37 1012.33 1012.25 1012.21 1012.21 1012.17 1012.17 1012.17 1012.17 1012.17
1012.69 1012.77 1012.81 1012.85 1012.85 1012.81 1012.77 1012.61 1012.33 1012.05 1011.77 1011.53 1011.37 1011.25 1011.13 1011.01 1010.93 1010.93 1011.01 1011.13 1011.25 1011.33 1011.37 1011.37 1011.45 1011.53 1011.65 1011.77 1011.89 1012.01 1012.05 1012.09 1012.05 1012.05 1012.05 1012.05 1012.05 1012.05 1011.93 1011.85 1011.77 1011.81 1011.85 1011.85 1011.85 1011.97 1012.13 1012.25 1012.37 1012.49 1012.53 1012.53 1012.53 1012.49 1012.53 1012.53 1012.61 1012.65 1012.61 1012.61 1012.57 1012.53 1012.49 1012.49 1012.41 1012.33 1012.25 1012.21 1012.21
1012.93 1012.97 1013.01 1012.97 1013.01 1012.97 1012.89 1012.73 1012.53 1012.29 1012.05 1011.81 1011.65 1011.45 1011.29 1011.21 1011.13 1011.17 1011.21 1011.29 1011.37 1011.49 1011.49 1011.49 1011.53 1011.61 1011.73 1011.89 1012.05 1012.21 1012.33 1012.37 1012.33 1012.33 1012.29 1012.25 1012.29 1012.25 1012.13 1012.01 1011.93 1011.97 1012.01 1012.01 1012.05 1012.21 1012.33 1012.45 1012.53 1012.61 1012.65 1012.61 1012.61 1012.61 1012.61 1012.61 1012.65 1012.69 1012.73 1012.73 1012.73 1012.73 1012.73 1012.69 1012.65 1012.57 1012.45 1012.33 1012.25
1013.05 1013.05 1013.05 1013.05 1013.05 1013.05 1012.97 1012.85 1012.69 1012.53 1012.33 1012.09 1011.93 1011.69 1011.53 1011.41 1011.37 1011.37 1011.45 1011.49 1011.61 1011.65 1011.69 1011.69 1011.65 1011.73 1011.85 1012.05 1012.17 1012.33 1012.49 1012.61 1012.61 1012.61 1012.61 1012.53 1012.49 1012.45 1012.33 1012.21 1012.13 1012.17 1012.21 1012.25 1012.33 1012.41 1012.53 1012.61 1012.69 1012.73 1012.77 1012.77 1012.73 1012.73 1012.77 1012.77 1012.77 1012.81 1012.85 1012.93 1012.93 1012.93 1012.89 1012.89 1012.81 1012.73 1012.61 1012.53 1012.41
1013.21 1013.21 1013.17 1013.13 1013.09 1013.05 1013.01 1012.93 1012.85 1012.73 1012.53 1012.33 1012.05 1011.89 1011.77 1011.69 1011.65 1011.65 1011.65 1011.69 1011.77 1011.85 1011.89 1011.85 1011.85 1011.93 1012.05 1012.17 1012.25 1012.33 1012.49 1012.69 1012.81 1012.85 1012.77 1012.77 1012.77 1012.73 1012.61 1012.49 1012.37 1012.37 1012.41 1012.45 1012.49 1012.57 1012.65 1012.77 1012.85 1012.93 1012.93 1012.89 1012.85 1012.85 1012.85 1012.89 1012.89 1012.93 1012.97 1013.01 1013.05 1013.01 1012.97 1012.93 1012.93 1012.89 1012.81 1012.69 1012.53
1013.29 1013.29 1013.25 1013.21 1013.17 1013.13 1013.05 1013.05 1012.93 1012.81 1012.61 1012.45 1012.21 1012.05 1011.93 1011.93 1011.89 1011.85 1011.85 1011.89 1011.97 1012.05 1012.09 1012.09 1012.17 1012.25 1012.37 1012.45 1012.49 1012.53 1012.57 1012.65 1012.77 1012.89 1012.93 1012.93 1012.93 1012.89 1012.77 1012.73 1012.65 1012.61 1012.61 1012.61 1012.65 1012.73 1012.81 1012.93 1013.01 1013.05 1013.05 1013.05 1012.97 1012.97 1012.97 1012.93 1012.97 1013.05 1013.05 1013.09 1013.13 1013.13 1013.05 1012.97 1012.93 1012.93 1012.89 1012.81 1012.69
1013.37 1013.33 1013.29 1013.25 1013.21 1013.21 1013.17 1013.09 1013.01 1012.89 1012.69 1012.53 1012.41 1012.29 1012.21 1012.17 1012.13 1012.09 1012.05 1012.09 1012.21 1012.25 1012.33 1012.37 1012.45 1012.57 1012.69 1012.77 1012.81 1012.85 1012.81 1012.81 1012.85 1012.93 1012.97 1013.01 1013.05 1013.01 1012.93 1012.93 1012.93 1012.89 1012.85 1012.85 1012.89 1012.93 1012.97 1013.05 1013.13 1013.21 1013.21 1013.21 1013.17 1013.17 1013.13 1013.09 1013.13 1013.13 1013.17 1013.21 1013.21 1013.21 1013.13 1013.05 1012.97 1012.93 1012.93 1012.89 1012.81
1013.49 1013.45 1013.41 1013.33 1013.29 1013.29 1013.21 1013.17 1013.05 1012.93 1012.81 1012.65 1012.61 1012.53 1012.49 1012.41 1012.33 1012.29 1012.25 1012.29 1012.37 1012.49 1012.53 1012.57 1012.61 1012.73 1012.85 1012.93 1013.01 1013.05 1013.05 1013.05 1013.05 1013.05 1013.05 1013.05 1013.05 1013.05 1013.05 1013.05 1013.09 1013.09 1013.05 1013.05 1013.09 1013.13 1013.17 1013.21 1013.25 1013.33 1013.33 1013.33 1013.25 1013.21 1013.17 1013.17 1013.21 1013.21 1013.21 1013.25 1013.29 1013.29 1013.29 1013.21 1013.17 1013.09 1013.05 1012.93 1012.85
1013.61 1013.53 1013.49 1013.41 1013.41 1013.33 1013.33 1013.21 1013.13 1013.05 1012.93 1012.85 1012.77 1012.77 1012.73 1012.61 1012.49 1012.45 1012.45 1012.49 1012.57 1012.61 1012.65 1012.73 1012.81 1012.93 1012.97 1013.05 1013.05 1013.09 1013.17 1013.21 1013.25 1013.25 1013.21 1013.21 1013.21 1013.17 1013.21 1013.21 1013.25 1013.25 1013.21 1013.21 1013.21 1013.29 1013.33 1013.37 1013.37 1013.37 1013.37 1013.37 1013.33 1013.25 1013.21 1013.21 1013.21 1013.25 1013.29 1013.29 1013.33 1013.33 1013.37 1013.33 1013.33 1013.29 1013.21 1013.09 1012.97
1013.77 1013.65 1013.57 1013.53 1013.53 1013.49 1013.41 1013.33 1013.21 1013.13 1013.05 1013.01 1012.93 1012.93 1012.93 1012.85 1012.73 1012.65 1012.69 1012.77 1012.77 1012.77 1012.77 1012.93 1013.01 1013.05 1013.13 1013.21 1013.21 1013.25 1013.29 1013.33 1013.37 1013.41 1013.37 1013.37 1013.33 1013.33 1013.33 1013.37 1013.41 1013.45 1013.41 1013.33 1013.33 1013.37 1013.49 1013.49 1013.53 1013.53 1013.49 1013.45 1013.33 1013.29 1013.25 1013.21 1013.21 1013.29 1013.33 1013.33 1013.37 1013.45 1013.49 1013.45 1013.45 1013.41 1013.33 1013.25 1013.13
1013.89 1013.77 1013.69 1013.65 1013.65 1013.61 1013.53 1013.49 1013.37 1013.29 1013.21 1013.21 1013.17 1013.09 1013.05 1013.05 1012.93 1012.89 1012.93 1012.93 1012.93 1012.93 1012.93 1013.05 1013.09 1013.17 1013.21 1013.29 1013.33 1013.37 1013.41 1013.49 1013.49 1013.53 1013.53 1013.53 1013.49 1013.49 1013.49 1013.49 1013.53 1013.57 1013.61 1013.53 1013.45 1013.41 1013.45 1013.53 1013.61 1013.65 1013.57 1013.49 1013.37 1013.33 1013.33 1013.29 1013.29 1013.33 1013.33 1013.37 1013.41 1013.49 1013.53 1013.53 1013.53 1013.49 1013.45 1013.37 1013.29
1014.01 1013.93 1013.85 1013.77 1013.77 1013.77 1013.73 1013.65 1013.57 1013.49 1013.41 1013.37 1013.33 1013.25 1013.21 1013.17 1013.09 1013.09 1013.13 1013.17 1013.13 1013.09 1013.13 1013.17 1013.25 1013.33 1013.41 1013.49 1013.53 1013.61 1013.65 1013.69 1013.69 1013.69 1013.69 1013.69 1013.65 1013.61 1013.61 1013.57 1013.65 1013.69 1013.73 1013.69 1013.61 1013.49 1013.41 1013.49 1013.53 1013.57 1013.57 1013.49 1013.49 1013.41 1013.37 1013.33 1013.33 1013.37 1013.45 1013.45 1013.49 1013.53 1013.57 1013.57 1013.57 1013.57 1013.53 1013.53 1013.49
1014.21 1014.13 1014.05 1014.01 1013.97 1013.93 1013.93 1013.89 1013.77 1013.73 1013.65 1013.57 1013.49 1013.41 1013.33 1013.37 1013.37 1013.41 1013.37 1013.33 1013.25 1013.25 1013.29 1013.37 1013.41 1013.49 1013.57 1013.65 1013.73 1013.77 1013.85 1013.89 1013.93 1013.93 1013.93 1013.93 1013.85 1013.77 1013.69 1013.65 1013.73 1013.77 1013.81 1013.77 1013.73 1013.61 1013.49 1013.45 1013.49 1013.53 1013.61 1013.57 1013.53 1013.49 1013.49 1013.49 1013.45 1013.49 1013.49 1013.49 1013.49 1013.53 1013.61 1013.61 1013.61 1013.61 1013.65 1013.69 1013.69
1014.41 1014.37 1014.33 1014.29 1014.21 1014.21 1014.17 1014.09 1014.05 1014.01 1013.93 1013.77 1013.65 1013.65 1013.65 1013.65 1013.69 1013.69 1013.65 1013.61 1013.49 1013.45 1013.49 1013.53 1013.57 1013.65 1013.69 1013.77 1013.85 1013.93 1013.97 1014.05 1014.09 1014.09 1014.09 1014.09 1014.05 1013.97 1013.85 1013.77 1013.77 1013.85 1013.93 1013.89 1013.81 1013.73 1013.65 1013.49 1013.49 1013.57 1013.65 1013.65 1013.65 1013.65 1013.65 1013.61 1013.57 1013.53 1013.57 1013.57 1013.57 1013.57 1013.61 1013.61 1013.65 1013.65 1013.65 1013.69 1013.77
1014.61 1014.57 1014.53 1014.49 1014.45 1014.37 1014.33 1014.29 1014.25 1014.25 1014.21 1014.09 1013.97 1013.89 1013.89 1013.93 1013.93 1013.97 1013.93 1013.89 1013.77 1013.73 1013.69 1013.69 1013.77 1013.77 1013.85 1013.89 1013.93 1014.01 1014.05 1014.13 1014.21 1014.21 1014.25 1014.25 1014.21 1014.09 1014.01 1013.93 1013.93 1013.93 1013.97 1014.01 1013.93 1013.81 1013.73 1013.65 1013.65 1013.69 1013.73 1013.73 1013.77 1013.77 1013.73 1013.69 1013.65 1013.65 1013.65 1013.65 1013.65 1013.61 1013.57 1013.57 1013.61 1013.65 1013.65 1013.65 1013.65
1014.85 1014.77 1014.77 1014.69 1014.61 1014.57 1014.49 1014.45 1014.41 1014.45 1014.45 1014.37 1014.33 1014.21 1014.13 1014.13 1014.13 1014.13 1014.09 1014.05 1014.01 1013.93 1013.89 1013.85 1013.89 1013.93 1013.93 1013.93 1014.01 1014.05 1014.17 1014.25 1014.33 1014.41 1014.41 1014.37 1014.29 1014.21 1014.09 1014.05 1014.05 1014.05 1014.05 1014.09 1014.05 1013.93 1013.81 1013.73 1013.77 1013.77 1013.85 1013.85 1013.85 1013.81 1013.77 1013.77 1013.77 1013.77 1013.81 1013.81 1013.77 1013.69 1013.61 1013.61 1013.61 1013.65 1013.65 1013.61 1013.61
Wind_Speed
7 6 6 6 5 5 4 3 3 3 2 2 2 2 2 2 2 2 2 1 1 1 1 1 1 2 2 2 1 1 2 2 2 1 1 1 1 1 1 1 1 1 2 2 2 2 2 2 2 2 2 3 3 3 4 3 4 5 5 6 5 6 6 7 7 8 9 9 7
9 7 5 5 5 4 3 3 3 3 2 2 1 1 1 1 1 1 2 2 1 1 2 2 2 2 2 2 2 1 1 1 1 1 1 1 1 1 0 0 0 1 1 1 1 2 2 2 2 2 2 3 3 4 4 4 4 5 6 7 6 5 5 6 7 8 9 9 8
8 7 5 4 3 3 3 3 3 3 3 2 2 1 1 1 1 2 2 2 2 2 2 2 2 2 2 2 1 1 1 2 1 1 0 0 1 1 1 1 1 1 1 1 1 1 2 2 2 2 2 3 4 4 4 4 4 5 6 7 5 4 4 5 6 6 6 6 7
7 6 5 4 5 5 4 3 4 4 4 3 3 2 2 2 2 2 2 2 2 2 2 1 1 2 2 1 2 2 2 2 3 3 2 2 2 2 2 2 2 2 2 2 2 2 2 2 2 2 3 3 4 4 4 4 4 4 4 5 4 4 4 4 4 4 4 4 6
6 5 5 5 6 6 5 4 5 5 4 4 3 3 3 2 2 2 2 2 2 2 2 1 1 1 1 1 2 2 2 2 3 3 3 4 4 3 3 3 4 4 3 3 3 3 3 3 2 2 3 3 3 4 4 4 4 4 4 3 3 3 4 4 4 4 3 4 4
6 6 7 6 6 5 4 4 4 5 4 4 4 4 4 3 3 3 3 2 2 2 2 2 1 2 2 2 2 2 3 3 3 3 4 4 4 5 5 5 5 5 5 5 4 4 4 3 3 2 3 3 3 4 4 4 3 3 3 3 3 3 3 4 3 3 3 4 5
9 10 10 8 7 6 5 4 4 4 5 5 5 5 5 4 4 4 3 3 2 2 2 1 1 2 2 2 3 3 3 3 4 4 5 5 5 6 6 6 6 6 6 6 6 5 5 4 3 3 3 3 3 4 4 4 3 4 4 4 3 3 3 4 3 3 4 5 6
11 12 12 10 9 8 8 7 6 5 5 5 6 7 7 6 6 5 4 3 2 2 1 1 1 2 2 3 3 3 4 4 4 5 5 5 6 7 7 7 7 7 7 7 6 6 6 5 4 4 4 4 4 4 5 5 5 5 5 5 4 3 3 3 3 3 4 5 6
10 11 11 11 10 10 10 10 8 7 6 6 7 8 8 7 7 6 5 4 3 2 1 1 1 1 2 2 3 3 3 4 5 5 5 6 7 7 7 7 7 7 7 7 7 7 6 5 4 5 5 5 5 5 6 6 6 6 6 6 5 4 4 3 4 4 4 5 6
8 8 8 8 8 10 11 10 10 9 8 8 8 8 8 7 7 6 5 4 3 2 1 1 1 1 2 2 2 2 3 4 4 5 5 6 6 7 7 7 7 7 7 7 6 6 6 5 5 6 6 6 7 7 8 7 7 7 7 6 6 6 6 5 5 5 5 5 6
5 6 6 6 5 6 8 10 9 8 8 8 8 8 7 7 6 5 5 4 4 3 2 1 1 1 1 1 2 2 2 3 3 4 4 5 6 6 7 7 7 7 7 7 6 6 6 5 6 7 7 7 7 8 8 8 8 8 8 7 7 7 8 8 7 6 6 6 6
4 4 4 4 3 3 5 7 7 7 8 8 8 7 7 6 6 6 5 5 4 4 3 2 1 1 1 1 1 1 1 2 2 3 4 5 5 6 6 7 7 7 7 7 6 6 5 6 6 7 8 8 7 6 7 7 7 8 8 8 8 8 8 8 8 7 6 6 6
6 5 4 4 3 3 3 4 5 6 7 7 7 6 6 6 6 6 6 6 5 4 3 2 1 1 0 0 0 0 1 1 1 2 3 4 5 5 6 6 6 7 7 6 6 5 5 6 6 7 7 7 6 6 6 7 7 7 8 8 8 8 8 8 8 8 7 7 7
8 7 5 5 5 4 3 2 2 3 5 6 6 6 6 5 5 5 5 6 5 4 3 2 2 1 1 1 1 1 1 1 1 2 3 3 4 5 5 6 6 6 6 5 5 5 5 5 5 5 6 6 6 6 6 6 6 6 7 7 8 8 8 8 7 7 7 7 8
9 8 6 5 5 4 3 2 1 2 3 5 5 5 5 5 4 4 5 5 5 4 3 2 2 2 1 1 2 2 2 2 2 2 3 3 4 5 5 5 5 5 5 5 4 4 4 4 4 4 4 4 4 4 4 4 4 4 5 5 6 6 6 6 6 6 6 7 7
8 8 6 4 3 2 2 2 1 1 2 3 4 5 5 4 4 4 4 5 5 4 3 3 2 2 2 2 2 2 2 2 2 2 2 3 4 4 4 5 5 5 5 5 4 3 3 2 1 2 2 2 2 1 2 3 3 4 4 4 4 4 4 5 5 5 5 5 6
8 8 7 5 3 2 2 2 2 2 2 3 4 5 5 4 4 4 4 4 4 4 4 3 2 1 1 1 2 2 2 2 2 1 2 3 3 3 3 4 5 4 4 4 2 0 2 2 2 2 2 1 0 1 2 3 4 4 5 5 5 5 5 5 5 4 4 4 4
6 7 8 7 5 4 3 3 3 3 3 3 4 4 4 4 4 4 4 4 4 4 4 4 2 2 1 1 1 1 1 1 1 1 1 2 2 2 3 4 4 4 3 2 3 4 5 5 5 4 3 2 2 3 4 4 5 5 5 6 6 6 7 7 6 6 5 5 4
2 4 6 8 7 6 5 4 4 4 4 4 4 4 5 5 5 5 5 5 5 5 4 3 2 2 1 1 1 1 0 0 1 2 2 2 2 3 5 5 5 6 6 5 6 7 7 7 7 6 5 4 4 5 5 6 6 6 6 7 7 8 8 8 8 8 7 7 7
2 1 2 5 7 7 6 5 5 5 5 5 5 5 5 5 5 5 6 6 6 5 4 3 3 2 2 2 2 1 1 1 2 3 3 4 4 5 6 6 6 7 7 7 8 8 8 8 8 7 6 6 7 7 7 7 7 7 7 7 8 9 9 9 9 9 9 9 9
4 3 2 1 3 5 6 5 5 5 5 5 5 6 6 6 6 6 6 6 5 4 4 3 3 3 3 2 2 2 2 2 3 4 4 4 5 5 6 6 6 6 7 7 8 8 9 9 8 8 8 8 8 8 8 7 7 7 7 7 8 9 9 9 9 9 9 10 10
5 5 4 3 2 3 4 4 4 4 5 5 5 5 6 6 6 6 6 6 5 4 4 3 3 3 3 2 2 2 3 4 4 4 4 4 5 5 5 5 6 6 6 7 7 8 9 9 9 9 9 9 9 9 8 7 7 7 7 8 8 8 9 9 9 9 9 9 9
6 6 5 4 3 2 2 2 3 4 4 4 5 5 6 6 6 6 6 5 5 4 4 3 3 3 2 2 2 3 4 5 5 5 5 5 5 5 5 5 5 6 6 6 7 7 8 8 9 9 9 8 9 9 9 8 8 7 7 7 8 8 8 8 8 8 8 8 8
8 7 6 5 4 3 1 1 2 2 3 4 5 6 6 6 6 6 6 6 5 5 4 3 3 3 3 4 4 5 5 6 6 6 6 7 7 6 6 5 5 5 6 6 7 8 7 7 7 7 7 7 7 8 8 9 8 8 8 8 8 8 7 8 8 8 8 8 8
8 8 7 7 5 4 3 2 1 2 3 5 5 6 5 5 5 6 6 6 6 5 4 4 4 4 5 5 6 6 6 7 7 7 8 8 8 7 6 4 5 5 6 8 11 11 11 9 7 6 6 6 6 7 7 8 8 9 8 8 8 7 7 7 7 8 8 8 7
8 8 8 7 6 6 5 4 4 4 4 5 5 5 5 5 5 6 6 6 5 5 5 4 4 5 6 6 7 7 7 6 7 8 8 9 8 7 6 4 5 5 6 9 12 13 13 12 10 8 6 5 5 6 6 7 8 8 8 8 8 8 7 7 7 7 7 7 7
7 7 7 6 6 6 6 5 5 5 5 5 5 5 5 5 5 5 6 5 5 4 4 4 5 6 6 7 8 8 7 6 7 8 9 9 8 7 6 4 5 5 7 11 13 14 13 13 11 9 7 5 5 5 5 6 6 7 7 8 8 8 8 8 8 7 7 7 6
6 6 5 5 5 5 5 6 6 6 6 6 6 5 5 5 5 5 5 5 4 4 4 4 5 5 5 6 7 8 8 7 8 8 9 9 8 7 6 5 5 7 9 13 14 14 14 13 12 10 8 7 6 5 6 6 6 6 6 6 7 7 7 7 6 6 7 7 7
5 5 4 4 4 4 5 6 6 6 6 6 6 6 6 6 5 5 5 5 5 4 3 3 4 4 5 6 7 8 8 8 7 7 7 8 8 8 8 8 8 9 12 14 14 14 14 13 12 11 9 7 5 5 4 5 5 5 5 5 5 6 6 5 6 6 6 7 6
4 4 4 4 4 4 5 5 6 6 6 6 6 6 6 6 5 5 5 6 5 5 4 3 4 5 6 6 6 7 7 7 6 6 7 8 8 8 9 9 9 9 11 13 14 14 13 13 12 11 10 9 6 5 4 5 4 4 4 4 5 5 5 5 6 6 6 6 6
4 4 4 4 4 4 4 5 5 6 6 6 6 7 6 5 5 5 5 6 6 6 5 6 7 8 7 6 6 6 7 7 7 7 7 7 8 8 9 10 10 10 10 12 12 13 13 12 12 11 10 9 7 5 5 5 5 5 4 5 5 5 5 5 5 6 6 6 6
4 4 4 4 4 4 4 5 5 5 6 6 7 7 6 5 5 5 5 6 6 6 7 7 8 8 8 7 7 7 7 7 7 7 7 7 7 8 8 9 9 10 10 12 12 12 12 11 11 11 10 9 7 6 5 5 5 5 5 5 6 6 6 5 5 6 6 6 6
5 4 4 5 5 5 4 5 5 5 5 6 6 6 6 5 4 4 5 6 6 6 7 7 8 8 7 7 7 7 7 7 8 8 8 8 8 8 8 8 8 9 11 11 11 11 10 10 10 10 9 8 6 5 5 5 4 4 4 5 5 6 6 6 6 6 6 6 6
5 5 5 5 5 5 5 5 5 5 5 6 6 6 5 4 3 4 5 5 5 5 6 7 7 7 7 6 7 7 7 7 7 8 8 8 8 9 8 7 7 9 11 11 10 10 9 9 9 8 8 7 5 5 5 5 4 4 4 4 5 5 5 5 5 6 6 6 6
5 5 5 5 6 6 6 6 6 6 6 6 6 5 4 3 3 3 4 5 5 5 6 7 7 7 7 7 7 7 8 8 8 8 8 8 8 9 9 8 8 9 11 11 9 8 8 8 8 7 6 5 4 4 4 4 4 4 4 4 4 5 5 4 4 5 5 6 6
5 5 5 5 6 6 6 7 6 6 6 6 5 4 3 2 1 3 4 4 5 5 6 7 7 7 7 7 7 7 8 8 8 8 8 8 8 8 8 8 8 9 10 10 9 7 6 7 7 6 6 4 4 4 4 4 3 3 4 4 4 4 4 4 4 4 5 5 6
6 6 6 6 7 7 7 7 7 6 6 6 5 4 3 1 2 3 4 4 5 5 6 7 7 7 7 7 7 8 8 8 8 8 8 8 7 7 7 7 8 8 9 10 10 9 7 5 5 6 5 5 4 4 4 4 3 3 3 3 4 4 4 3 3 4 4 5 6
7 7 7 7 7 7 7 7 7 7 6 6 5 5 4 3 3 3 3 3 4 5 6 7 7 7 8 8 8 8 8 8 8 8 7 7 7 7 7 7 8 8 8 10 10 9 8 7 6 6 6 5 5 5 4 4 3 3 3 3 3 3 3 3 3 3 4 5 6
7 7 7 7 7 6 6 6 7 7 7 6 6 6 5 5 4 4 3 3 4 5 6 7 7 7 7 7 7 7 7 7 7 7 7 7 7 7 8 8 8 8 8 9 9 9 8 7 7 7 6 5 5 4 4 3 3 3 3 3 3 3 3 3 3 3 3 4 5
7 7 7 6 6 6 6 6 7 7 7 7 6 6 6 5 5 4 4 4 4 5 5 6 7 7 7 7 6 6 7 7 7 7 6 6 6 7 8 8 8 7 8 8 9 9 8 7 7 6 5 4 4 3 3 3 3 4 4 4 3 3 3 3 3 3 3 4 4
6 6 6 6 5 5 6 6 6 6 6 7 7 6 5 4 4 4 3 3 3 4 4 5 6 6 6 5 5 5 6 6 6 6 5 5 6 6 7 7 7 7 7 7 8 8 8 7 6 5 5 3 3 3 3 3 4 4 5 4 4 4 3 3 3 3 3 4 3
Wind_Direction
246 223 202 191 191 194 198 202 199 198 199 206 202 194 190 198 183 162 143 143 133 123 118 117 113 109 109 113 117 125 130 128 131 136 138 136 130 134 165 199 221 234 240 243 242 234 225 219 228 236 242 245 243 243 239 232 225 224 225 225 228 231 233 233 234 233 231 230 229
269 254 229 199 188 186 188 189 186 181 176 174 175 173 169 174 146 126 113 106 98 104 111 112 107 102 103 106 99 95 90 99 103 124 134 136 115 106 119 166 234 270 264 258 255 246 236 224 230 234 238 239 240 238 235 230 225 227 228 228 228 230 232 234 235 235 234 232 230
268 265 253 228 203 194 191 190 182 171 160 147 141 133 122 109 97 96 96 96 98 102 105 107 108 102 96 93 78 57 40 29 17 357 337 52 68 46 12 358 348 324 300 288 275 266 258 247 240 240 242 241 238 237 233 226 221 224 229 230 230 230 232 237 237 237 236 233 230
255 258 255 243 223 212 205 197 181 166 155 141 133 124 115 104 104 105 109 111 107 97 88 88 106 104 94 68 48 37 23 13 355 341 333 330 337 339 338 337 328 319 309 304 299 291 283 276 257 249 247 251 251 250 244 232 220 221 226 229 230 230 232 238 240 240 240 238 234
250 256 256 247 230 220 209 200 182 169 157 148 145 140 136 129 129 129 126 119 105 87 71 56 60 63 57 36 22 14 7 4 348 335 325 320 320 318 318 317 315 310 306 303 301 299 296 290 273 258 252 254 258 258 257 255 242 234 230 228 228 229 232 237 239 240 241 242 238
270 264 254 242 227 217 205 192 178 168 159 153 153 151 148 144 141 136 128 118 105 95 83 57 36 26 19 7 359 351 347 341 333 326 319 313 312 310 308 307 306 303 300 298 297 295 292 286 276 265 260 259 259 258 257 259 254 248 242 232 227 226 230 235 236 237 238 239 239
261 250 238 222 204 190 177 170 167 161 156 151 151 149 146 142 138 133 126 118 115 109 98 76 35 11 359 351 349 344 338 330 323 319 316 311 310 307 303 301 300 297 294 292 290 287 284 280 275 268 263 259 259 258 255 247 245 246 247 243 229 223 225 232 234 235 236 239 239
244 235 225 209 191 177 169 167 166 163 160 155 152 148 144 141 140 137 133 128 123 116 107 86 34 9 356 348 345 339 332 326 319 316 314 311 308 304 301 299 295 292 289 286 285 284 282 280 274 270 267 264 263 261 258 252 250 251 254 256 247 234 225 229 231 235 239 242 242
235 231 223 207 187 173 166 165 165 165 162 156 150 145 142 141 142 141 138 132 123 118 111 85 33 11 357 350 344 338 332 324 319 317 315 312 307 304 301 298 295 292 289 287 284 282 280 278 273 268 267 267 266 265 264 261 259 259 260 263 260 252 242 236 236 238 243 247 247
237 239 236 221 192 173 162 158 159 159 156 152 147 143 140 139 140 139 136 128 127 128 119 83 33 12 2 355 352 344 335 326 320 318 315 311 308 305 302 298 296 294 292 290 286 282 278 273 268 266 266 267 268 270 271 270 267 265 264 264 264 264 260 254 249 248 249 252 251
241 253 257 255 214 176 158 151 152 152 151 148 145 141 138 137 137 136 134 130 131 129 116 80 44 20 5 3 2 350 337 326 322 318 315 311 307 304 302 299 298 296 294 291 287 282 277 271 268 267 267 268 269 270 271 271 270 269 267 267 268 269 269 267 264 261 259 258 258
210 238 255 261 239 194 160 148 147 147 148 147 145 142 139 137 137 135 132 130 129 123 109 87 63 34 10 4 4 343 326 319 319 315 311 308 305 303 302 300 299 296 293 291 286 281 275 270 269 270 270 271 270 269 270 272 272 272 270 269 269 269 269 269 269 268 266 266 267
175 193 217 229 222 205 174 151 147 146 146 145 144 140 137 136 136 133 130 126 123 118 111 101 94 82 29 298 242 243 253 287 303 302 302 299 297 296 296 296 295 293 291 289 286 282 278 275 275 276 277 278 277 279 281 283 281 277 274 272 271 270 270 271 272 273 274 275 273
163 172 187 202 202 195 181 156 146 141 141 142 141 137 133 130 127 125 122 120 118 117 119 122 131 147 183 220 213 211 213 229 263 276 281 283 284 285 286 287 288 287 286 284 282 277 273 272 276 278 282 285 288 293 296 297 293 288 284 281 279 278 277 277 278 279 279 278 274
159 164 175 191 195 186 164 137 125 132 137 141 135 128 122 117 116 116 116 116 117 120 125 133 143 156 178 210 218 218 218 222 242 258 270 279 281 282 284 288 292 294 293 288 277 263 253 254 266 278 286 289 296 305 313 317 317 315 311 306 301 298 294 292 289 285 280 276 273
155 157 164 177 182 163 132 118 116 129 137 136 125 118 113 111 114 116 116 117 119 122 127 130 136 149 170 200 216 224 229 231 245 261 282 301 292 292 297 311 315 313 305 296 276 251 233 239 280 303 302 293 298 327 356 5 5 3 359 353 346 340 333 324 313 300 289 281 275
155 155 155 159 152 136 119 118 127 136 138 128 118 115 116 119 120 117 114 113 116 115 114 110 112 121 155 192 207 221 232 239 249 274 310 322 303 309 331 350 341 328 312 296 285 166 98 69 42 18 350 314 61 78 71 59 50 42 36 31 27 21 15 6 354 343 330 313 296
168 160 156 151 148 143 138 139 143 145 142 134 125 121 120 121 118 114 110 105 101 97 95 94 98 105 122 165 193 214 234 248 277 346 4 341 327 359 24 23 5 355 349 2 60 74 72 61 48 31 14 8 59 74 72 67 61 55 49 45 40 35 31 25 19 13 7 2 357
210 175 159 150 148 147 146 148 151 151 148 142 133 125 119 114 112 110 104 95 88 85 86 93 103 112 117 123 145 169 199 270 19 35 38 22 31 49 53 44 30 26 30 47 63 68 67 59 51 37 22 18 40 51 55 56 55 51 48 44 39 35 32 28 25 23 22 23 22
322 292 164 148 143 142 143 149 153 154 152 147 137 128 120 115 110 104 97 91 88 89 94 104 114 120 125 130 140 148 138 90 61 55 54 47 54 60 62 57 49 42 41 45 53 58 60 56 51 42 34 31 38 43 46 48 49 48 46 43 39 34 30 26 24 25 28 30 30
359 355 2 58 118 128 134 140 149 154 153 146 136 128 121 113 105 98 94 94 98 104 112 121 123 126 130 137 144 140 120 90 71 64 61 59 62 65 67 67 63 58 54 51 54 55 56 54 49 45 42 40 41 42 43 42 46 48 49 48 44 39 34 28 25 26 28 31 30
9 6 4 9 44 94 116 131 147 154 152 142 132 122 112 104 99 98 99 104 112 119 125 129 127 127 128 134 132 119 99 82 70 63 61 61 63 63 65 67 70 70 68 64 62 61 60 57 51 46 44 43 42 41 40 39 41 45 49 52 49 44 39 33 29 29 30 31 31
9 5 2 358 10 39 95 138 157 157 148 133 118 107 101 97 100 104 109 114 119 123 128 130 123 118 115 111 104 97 89 82 73 64 57 54 55 55 56 60 65 69 70 68 65 63 63 61 55 50 46 45 42 39 37 35 35 38 42 47 48 45 41 36 32 30 30 31 31
6 0 355 350 351 353 351 186 170 147 123 106 97 94 95 100 106 110 114 115 118 121 125 127 119 110 100 89 86 85 84 82 75 65 56 50 47 46 49 57 62 67 70 71 68 66 64 62 59 54 51 49 46 42 38 33 31 32 34 37 41 42 41 39 34 31 29 29 29
3 358 351 345 341 337 330 321 349 54 70 76 82 88 96 103 109 111 113 114 117 121 123 124 118 108 97 86 80 77 75 74 71 64 56 49 42 38 40 54 61 66 70 74 73 72 69 67 66 62 58 56 54 51 46 38 33 31 30 31 32 34 36 37 35 32 30 28 28
5 359 353 346 342 339 339 342 358 19 39 55 68 81 91 100 103 106 109 112 117 122 125 123 113 102 94 89 82 75 69 66 66 63 57 50 42 35 34 50 62 67 71 75 76 74 73 73 73 72 69 65 63 61 58 49 41 36 33 31 29 27 27 28 28 27 27 27 27
10 3 357 352 349 348 348 350 360 12 24 38 51 64 75 84 91 96 101 109 115 120 121 117 108 101 96 92 86 78 71 63 63 62 58 51 43 37 36 53 68 75 76 77 77 76 75 75 76 76 75 72 69 67 64 61 51 44 39 34 31 28 25 23 19 18 18 19 22
13 6 0 358 358 355 354 356 3 11 18 25 35 45 56 67 78 87 97 104 109 110 111 112 109 106 99 92 88 83 76 67 62 59 56 51 43 37 38 52 70 79 81 80 78 77 76 75 75 74 74 72 70 67 63 61 57 50 44 38 33 30 27 24 18 13 12 11 14
12 5 3 6 5 2 1 2 7 11 15 19 26 34 44 55 68 81 92 98 96 93 93 100 103 101 99 100 98 94 86 76 67 61 55 51 43 37 36 46 63 76 81 81 80 78 75 73 71 71 70 70 70 69 66 62 59 55 51 44 35 31 28 27 20 14 11 8 9
9 5 6 11 13 11 8 6 7 10 13 17 23 30 37 45 58 74 85 90 88 86 84 89 93 94 95 98 100 99 97 91 81 71 62 56 47 40 36 38 49 65 76 80 79 77 74 71 69 67 66 65 65 67 69 69 66 63 58 51 40 34 31 31 27 20 14 8 6
11 9 10 15 20 20 14 6 4 7 12 20 24 28 33 39 52 66 78 86 87 86 85 87 88 87 84 80 79 83 87 90 86 78 70 62 55 48 42 39 41 53 67 75 77 77 74 71 68 65 63 61 59 58 58 61 63 60 56 49 39 32 27 27 26 22 17 11 6
15 13 12 15 24 26 19 6 0 4 14 25 28 28 29 36 52 66 77 85 88 91 92 92 91 90 86 82 79 76 75 75 76 76 73 70 63 56 50 45 40 44 54 67 75 77 75 72 68 66 63 61 59 57 56 57 58 57 53 47 39 31 24 20 19 17 13 9 6
15 13 12 14 24 27 22 9 1 3 14 27 29 27 25 29 56 75 84 88 93 96 97 97 96 95 95 93 90 85 81 76 73 71 70 69 66 61 55 49 42 39 44 55 68 74 75 72 68 65 61 58 56 54 52 52 52 50 47 42 38 32 25 18 14 10 6 1 2
11 11 13 18 25 26 21 10 3 6 16 27 29 26 21 19 50 75 86 89 96 99 99 96 95 94 95 94 92 89 86 82 77 72 68 66 64 62 57 51 43 35 34 41 56 67 74 72 67 62 57 53 49 46 42 41 43 40 37 33 32 29 23 17 13 8 3 357 357
8 9 15 27 30 27 19 9 5 9 17 24 25 24 21 16 46 75 89 94 100 102 102 99 99 98 96 95 93 91 88 85 81 75 70 65 63 61 58 53 45 34 29 28 38 56 72 78 70 62 55 48 43 36 31 29 33 33 31 26 28 27 23 17 13 9 3 358 359
10 13 23 36 37 30 20 9 7 11 18 21 20 21 23 25 75 98 102 105 106 105 103 102 101 99 97 93 90 87 85 83 79 74 68 64 61 60 57 54 46 36 27 20 19 29 54 82 76 65 52 41 33 26 21 15 18 20 19 17 22 24 22 18 16 12 9 3 4
16 21 30 39 39 32 22 10 9 13 18 18 18 23 33 73 113 112 107 110 110 106 102 100 99 97 94 91 88 84 81 78 75 71 65 59 56 55 54 52 45 37 28 19 11 9 15 49 66 61 47 32 25 18 13 7 6 8 10 9 16 19 20 16 19 20 18 14 10
23 27 32 36 37 31 23 13 14 16 17 16 19 28 41 63 81 89 95 103 108 106 104 102 101 99 98 96 93 88 84 79 74 68 62 54 49 47 46 46 42 35 26 17 10 4 1 11 39 47 41 27 21 16 9 2 0 3 5 5 10 15 18 17 18 23 26 24 16
26 31 33 34 33 30 25 21 21 20 17 14 20 31 44 56 60 63 67 72 89 98 103 104 103 102 102 100 98 95 91 85 78 71 63 54 46 41 39 40 36 31 24 16 10 3 0 5 29 40 40 27 20 14 7 359 358 2 5 5 4 8 15 21 20 22 25 28 23
28 33 36 34 32 30 29 28 28 25 20 14 17 27 41 56 60 62 63 67 80 92 100 104 105 105 105 104 102 99 95 89 79 71 63 56 48 43 39 36 32 28 23 17 9 3 1 8 30 43 45 33 21 13 7 1 0 4 7 5 359 359 4 15 18 18 18 21 25
28 32 35 37 34 31 30 31 33 30 25 19 15 17 28 49 62 71 78 86 98 106 110 112 112 112 111 109 106 102 97 89 79 71 63 56 49 44 40 34 29 25 23 20 10 4 3 11 33 50 58 46 28 19 13 8 8 8 6 1 357 355 357 3 10 12 12 10 16